weather.gov     
National Weather Service

Terminal Aerodrome Forecast
NWS Homepage
This page is being discontinued on March 12, 2014.
The same data is available at this site. Please update your bookmarks.
Thank you, and we apologize for the inconvenience.
Please send an email to SR-SRH.Webmaster@noaa.gov with any concerns.


Current Version
Previous Version:    01  02  03  04  05  06  07  08  09  10  11  12  13  14  15  16  17  18  19  20  21  22  23  24  25  26  27  28  29  30  
   31  32  33  
[Printable]
634
FTUS41 KPBZ 211100
TAFBVI
TAF
KBVI 211138Z 2112/2212 00000KT 5SM BR SCT250
     FM211400 VRB03KT 6SM BR BKN120
     FM211600 23010KT P6SM BKN050
     FM211900 24009KT P6SM VCTS BKN040CB
     FM220200 VRB04KT P6SM SCT040
     FM220800 VRB03KT 6SM BR SCT040 BKN080=


U.S. Dept. of Commerce
NOAA National Weather Service
1325 East West Highway
Silver Spring, MD 20910
E-mail: w-nws.webmaster@noaa.gov
Page last modified: May 16, 2007
NATIONAL WEATHER SERVICE: for Safety, for Work, for Fun - FOR LIFE